Change the Weather History Date:

Tuesday, August 6, 2013

  Actual Average (KDRO) Record (KDRO)
Temperature  
Mean Temperature 64 °F 69 °F  
Max Temperature 74 °F 84 °F 97 °F (1981)
Min Temperature 55 °F 54 °F 42 °F (1976)
Degree Days  
Heating Degree Days 0 0  
Month to date heating degree days 0  
Since 1 June heating degree days 125  
Since 1 July heating degree days 10  
Cooling Degree Days 0 4  
Month to date cooling degree days 25  
Year to date cooling degree days 176  
Since 1 June cooling degree days 175  
Growing Degree Days 14 (Base 50)    
Moisture  
Dew Point 48 °F    
Average Humidity 60    
Maximum Humidity 98    
Minimum Humidity 28    
Precipitation  
Precipitation 0.00 in 0.08 in 0.89 in (1988)
Month to date precipitation 0.51  
Year to date precipitation 8.30  
Sea Level Pressure  
Sea Level Pressure 30.31 in    
Wind  
Wind Speed 5 mph (NNW)    
Max Wind Speed 20 mph    
Max Gust Speed 28 mph    
Visibility 10 miles    
Events Rain , Thunderstorm    
T = Trace of Precipitation, MM = Missing Value Source: NWS Daily Summary

Daily Weather History Graph

Daily Weather History Graph

Search for Another Location

Airport or City:

Trip Planner

Search our weather history database for the weather conditions in past years. The results will help you decide how hot, cold, wet, or windy it might be!

Date:

Astronomy

Aug. 06, 2013 Rise Set
Actual Time 6:17 AM MDT 8:10 PM MDT
Civil Twilight 5:48 AM MDT 8:38 PM MDT
Nautical Twilight 5:14 AM MDT 9:13 PM MDT
Astronomical Twilight 4:37 AM MDT 9:49 PM MDT
Moon 6:09 AM MDT (8/6) 7:48 PM MDT (8/6)
Length of Visible Light 14h 49m
Length of Day
13h 53m
Waning Crescent, 0% of the Moon is Illuminated
Aug 6
Waning Crescent
Aug 6
New
Aug 14
First Quarter
Aug 20
Full
Aug 28
Last Quarter

Hourly Weather History & Observations

Time (MDT) Temp. Dew Point Humidity Pressure Visibility Wind Dir Wind Speed Gust Speed Precip Events Conditions
12:15 AM 59.9 °F 48.2 °F 65% 30.33 in 10.0 mi North 6.9 mph - N/A   Clear
12:35 AM 59.9 °F 48.0 °F 65% 30.33 in 10.0 mi NNE 5.8 mph - N/A   Scattered Clouds
12:55 AM 59.5 °F 47.8 °F 65% 30.32 in 10.0 mi North 4.6 mph - N/A   Scattered Clouds
1:15 AM 59.9 °F 47.3 °F 63% 30.32 in 10.0 mi North 5.8 mph - N/A   Scattered Clouds
1:35 AM 60.3 °F 46.8 °F 61% 30.31 in 10.0 mi NE 4.6 mph - N/A   Scattered Clouds
1:55 AM 58.6 °F 47.3 °F 66% 30.31 in 10.0 mi Calm Calm - N/A   Scattered Clouds
2:15 AM 57.2 °F 49.5 °F 75% 30.31 in 10.0 mi Calm Calm - N/A   Mostly Cloudy
2:35 AM 57.4 °F 51.3 °F 80% 30.31 in 10.0 mi Calm Calm - N/A   Scattered Clouds
2:55 AM 56.3 °F 51.1 °F 83% 30.31 in 10.0 mi NNE 5.8 mph - N/A   Scattered Clouds
3:15 AM 58.1 °F 47.3 °F 67% 30.31 in 10.0 mi North 4.6 mph - N/A   Mostly Cloudy
3:35 AM 59.0 °F 47.7 °F 66% 30.32 in 10.0 mi Calm Calm - N/A   Mostly Cloudy
3:55 AM 58.5 °F 49.5 °F 72% 30.33 in 10.0 mi Calm Calm - N/A   Scattered Clouds
4:15 AM 56.8 °F 50.4 °F 79% 30.34 in 10.0 mi Calm Calm - N/A   Mostly Cloudy
4:35 AM 57.2 °F 48.2 °F 72% 30.35 in 10.0 mi ENE 3.5 mph - N/A   Mostly Cloudy
4:55 AM 56.5 °F 48.7 °F 75% 30.36 in 10.0 mi Calm Calm - N/A   Mostly Cloudy
5:15 AM 56.3 °F 49.1 °F 77% 30.36 in 10.0 mi NNE 4.6 mph - N/A   Overcast
5:35 AM 56.3 °F 48.7 °F 76% 30.36 in 10.0 mi NNE 3.5 mph - N/A   Overcast
5:55 AM 57.2 °F 48.0 °F 71% 30.36 in 10.0 mi NE 3.5 mph - N/A   Overcast
6:15 AM 57.2 °F 48.6 °F 73% 30.36 in 10.0 mi NE 3.5 mph - N/A   Overcast
6:35 AM 57.2 °F 48.4 °F 72% 30.36 in 10.0 mi Calm Calm - N/A   Mostly Cloudy
6:55 AM 57.4 °F 49.3 °F 74% 30.35 in 10.0 mi Calm Calm - N/A   Scattered Clouds
7:15 AM 58.3 °F 50.0 °F 74% 30.34 in 10.0 mi Calm Calm - N/A   Clear
7:35 AM 59.0 °F 49.8 °F 72% 30.34 in 10.0 mi NNE 3.5 mph - N/A   Clear
7:55 AM 59.5 °F 50.5 °F 72% 30.33 in 10.0 mi North 4.6 mph - N/A   Scattered Clouds
8:15 AM 60.3 °F 50.2 °F 69% 30.32 in 10.0 mi North 8.1 mph - N/A Thunderstorm Mostly Cloudy
8:35 AM 61.2 °F 50.0 °F 67% 30.32 in 10.0 mi NW 3.5 mph - N/A   Scattered Clouds
8:55 AM 62.1 °F 49.6 °F 64% 30.33 in 10.0 mi SW 3.5 mph - N/A   Clear
9:15 AM 61.9 °F 48.7 °F 62% 30.32 in 10.0 mi SW 4.6 mph - N/A   Scattered Clouds
9:35 AM 63.5 °F 48.7 °F 59% 30.33 in 10.0 mi West 3.5 mph - N/A   Mostly Cloudy
9:55 AM 64.9 °F 49.1 °F 56% 30.32 in 10.0 mi Calm Calm - N/A   Mostly Cloudy
10:15 AM 66.4 °F 47.7 °F 51% 30.33 in 10.0 mi Calm Calm - N/A   Scattered Clouds
10:35 AM 67.1 °F 48.4 °F 51% 30.33 in 10.0 mi Calm Calm - N/A   Clear
10:55 AM 68.2 °F 46.2 °F 45% 30.33 in 10.0 mi SW 4.6 mph - N/A   Clear
11:15 AM 69.4 °F 46.4 °F 44% 30.32 in 10.0 mi SSW 4.6 mph - N/A   Clear
11:35 AM 71.1 °F 45.0 °F 39% 30.32 in 10.0 mi WSW 6.9 mph - N/A   Clear
11:55 AM 71.8 °F 45.7 °F 39% 30.32 in 10.0 mi SSW 8.1 mph - N/A Thunderstorm Clear
12:15 PM 73.6 °F 44.6 °F 35% 30.30 in 10.0 mi WSW 3.5 mph - N/A   Scattered Clouds
12:35 PM 72.3 °F 44.4 °F 37% 30.30 in 10.0 mi WSW 6.9 mph - N/A   Mostly Cloudy
12:55 PM 72.9 °F 45.1 °F 37% 30.29 in 10.0 mi WSW 10.4 mph - N/A   Overcast
1:15 PM 72.5 °F 44.6 °F 37% 30.29 in 10.0 mi SW 6.9 mph - N/A Thunderstorm Overcast
1:35 PM 73.2 °F 43.5 °F 34% 30.28 in 10.0 mi SW 6.9 mph - N/A Thunderstorm Thunderstorm
1:55 PM 74.8 °F 42.8 °F 32% 30.28 in 10.0 mi SW 11.5 mph 17.3 mph N/A   Overcast
2:15 PM 71.4 °F 42.6 °F 35% 30.28 in 10.0 mi NW 19.6 mph 27.6 mph N/A   Mostly Cloudy
2:35 PM 71.8 °F 43.5 °F 36% 30.28 in 10.0 mi NW 11.5 mph 19.6 mph N/A   Mostly Cloudy
2:55 PM 70.9 °F 43.7 °F 38% 30.28 in 10.0 mi NW 13.8 mph 24.2 mph N/A   Overcast
3:15 PM 72.1 °F 43.3 °F 35% 30.27 in 10.0 mi NW 10.4 mph 19.6 mph N/A   Overcast
3:35 PM 74.3 °F 41.4 °F 31% 30.27 in 10.0 mi NW 9.2 mph - N/A   Mostly Cloudy
3:55 PM 73.8 °F 43.3 °F 34% 30.27 in 10.0 mi WNW 10.4 mph 18.4 mph N/A   Mostly Cloudy
4:15 PM 71.8 °F 42.8 °F 35% 30.26 in 10.0 mi NW 11.5 mph 16.1 mph N/A   Mostly Cloudy
4:35 PM 72.9 °F 44.1 °F 36% 30.26 in 10.0 mi NNE 6.9 mph - N/A Thunderstorm Mostly Cloudy
4:55 PM 74.3 °F 41.2 °F 30% 30.25 in 10.0 mi NNE 3.5 mph - N/A   Scattered Clouds
5:15 PM 72.9 °F 40.8 °F 31% 30.25 in 10.0 mi NW 10.4 mph - N/A   Clear
5:35 PM 74.8 °F 39.9 °F 28% 30.25 in 10.0 mi NW 6.9 mph - N/A   Clear
5:55 PM 73.8 °F 39.7 °F 29% 30.25 in 10.0 mi NW 10.4 mph - N/A Thunderstorm Scattered Clouds
6:15 PM 72.5 °F 41.0 °F 32% 30.25 in 10.0 mi NW 6.9 mph - N/A Thunderstorm Scattered Clouds
6:35 PM 72.5 °F 42.4 °F 34% 30.24 in 10.0 mi NW 5.8 mph - N/A Thunderstorm Overcast
6:55 PM 70.3 °F 44.8 °F 40% 30.24 in 10.0 mi ESE 6.9 mph - N/A   Overcast
7:15 PM 67.8 °F 45.5 °F 45% 30.25 in 10.0 mi East 6.9 mph - N/A Thunderstorm Overcast
7:35 PM 66.2 °F 45.9 °F 48% 30.26 in 10.0 mi SSE 5.8 mph - N/A Thunderstorm Thunderstorm
7:55 PM 63.7 °F 49.3 °F 59% 30.27 in 10.0 mi SSE 8.1 mph - N/A Thunderstorm Thunderstorm
8:15 PM 62.4 °F 50.9 °F 66% 30.29 in 10.0 mi ESE 4.6 mph - N/A   Overcast
8:35 PM 61.3 °F 51.8 °F 71% 30.31 in 10.0 mi ENE 5.8 mph - N/A Thunderstorm Overcast
8:55 PM 61.0 °F 52.7 °F 74% 30.34 in 10.0 mi SSW 13.8 mph - N/A Rain Heavy Rain
9:15 PM 57.0 °F 54.5 °F 91% 30.36 in 3.0 mi SSE 5.8 mph - N/A Rain Heavy Rain
9:35 PM 56.3 °F 54.9 °F 95% 30.36 in 3.0 mi East 3.5 mph - N/A Rain Heavy Rain
9:55 PM 56.1 °F 54.9 °F 96% 30.36 in 5.0 mi NE 3.5 mph - N/A Rain Rain
10:15 PM 56.3 °F 55.4 °F 97% 30.36 in 4.0 mi NE 6.9 mph - N/A Rain Heavy Rain
10:35 PM 55.9 °F 55.4 °F 98% 30.36 in 7.0 mi NNE 9.2 mph - N/A Rain Rain
10:55 PM 55.8 °F 55.0 °F 97% 30.34 in 7.0 mi NNE 8.1 mph - N/A Rain Rain
11:15 PM 55.8 °F 54.9 °F 97% 30.34 in 10.0 mi NNE 4.6 mph - N/A Rain Rain
11:35 PM 55.4 °F 54.5 °F 97% 30.32 in 10.0 mi Calm Calm - N/A   Mostly Cloudy
11:55 PM 55.6 °F 54.3 °F 96% 30.33 in 10.0 mi Calm Calm - N/A   Clear